Fort Stockton, TX

8:53 PM CDT on September 23, 2017 (GMT -0500)
Fort Stockton-Pecos County

Weather History for KFST - February, 2012

Change the Weather History Date:

Tuesday, February 21, 2012

  Actual Average Record
Temperature  
Mean Temperature 56 °F -  
Max Temperature 73 °F 64 °F 82 °F (2017)
Min Temperature 39 °F 40 °F 34 °F (1997)
Degree Days  
Heating Degree Days 9    
Growing Degree Days 6 (Base 50)    
Moisture  
Dew Point 22 °F    
Average Humidity 35    
Maximum Humidity 79    
Minimum Humidity 11    
Precipitation  
Precipitation 0.00 in - - ()
Sea Level Pressure  
Sea Level Pressure 30.00 in    
Wind  
Wind Speed 6 mph (South)    
Max Wind Speed 13 mph    
Max Gust Speed -    
Visibility 10 miles    
Events      
Averages and records for this station are not official NWS values.
T = Trace of Precipitation, MM = Missing Value Source: NWS Daily Summary

Daily Weather History Graph

Daily Weather History Graph

Search for Another Location

Airport or City:

Trip Planner

Search our weather history database for the weather conditions in past years. The results will help you decide how hot, cold, wet, or windy it might be!

Date:

Astronomy

Feb. 21, 2012 Rise Set
Actual Time 7:27 AM CST 6:43 PM CST
Civil Twilight 7:02 AM CST 7:08 PM CST
Nautical Twilight 6:34 AM CST 7:36 PM CST
Astronomical Twilight 6:06 AM CST 8:04 PM CST
Moon 6:59 AM CST (2/21) 6:48 PM CST (2/21)
Length of Visible Light 12h 05m
Length of Day
11h 16m
Waning Crescent, 0% of the Moon is Illuminated
Feb 21
Waning Crescent
Feb 21
New
Feb 29
First Quarter
Mar 8
Full
Mar 14
Last Quarter

Hourly Weather History & Observations

Time (CST) Temp. Windchill Dew Point Humidity Pressure Visibility Wind Dir Wind Speed Gust Speed Precip Events Conditions
12:53 AM 46.9 °F - 16.0 °F 29% 30.05 in 10.0 mi SE 5.8 mph - N/A   Clear
1:53 AM 41.0 °F - 19.9 °F 43% 30.05 in 10.0 mi Calm Calm - N/A   Clear
2:53 AM 42.1 °F 35.7 °F 19.9 °F 41% 30.03 in 10.0 mi South 11.5 mph - N/A   Clear
3:53 AM 41.0 °F 34.7 °F 23.0 °F 49% 30.02 in 10.0 mi SSE 10.4 mph - N/A   Clear
4:53 AM 41.0 °F 34.3 °F 30.0 °F 65% 30.01 in 10.0 mi South 11.5 mph - N/A   Clear
5:53 AM 41.0 °F 35.2 °F 35.1 °F 79% 30.03 in 10.0 mi South 9.2 mph - N/A   Clear
6:53 AM 39.9 °F 35.1 °F 27.0 °F 60% 30.05 in 10.0 mi SE 6.9 mph - N/A   Clear
7:53 AM 42.1 °F 38.4 °F 35.1 °F 76% 30.08 in 10.0 mi South 5.8 mph - N/A   Clear
8:53 AM 46.0 °F - 32.0 °F 58% 30.09 in 10.0 mi Calm Calm - N/A   Clear
9:53 AM 55.0 °F - 23.0 °F 29% 30.09 in 10.0 mi SW 4.6 mph - N/A   Clear
10:53 AM 60.1 °F - 19.9 °F 21% 30.07 in 10.0 mi Calm Calm - N/A   Clear
11:53 AM 64.0 °F - 18.0 °F 17% 30.06 in 10.0 mi NNW 3.5 mph - N/A   Clear
1:53 PM 71.1 °F - 17.1 °F 13% 29.98 in 10.0 mi Variable 3.5 mph - N/A   Clear
2:53 PM 71.1 °F - 15.1 °F 12% 29.93 in 10.0 mi Variable 3.5 mph - N/A   Clear
4:53 PM 73.0 °F - 16.0 °F 11% 29.90 in 10.0 mi NE 4.6 mph - N/A   Clear
5:53 PM 72.0 °F - 14.0 °F 11% 29.90 in 10.0 mi Calm Calm - N/A   Clear
6:53 PM 64.9 °F - 19.0 °F 17% 29.92 in 10.0 mi ESE 3.5 mph - N/A   Clear
8:53 PM 57.0 °F - 30.9 °F 37% 29.94 in 10.0 mi SSW 10.4 mph - N/A   Clear
9:53 PM 57.9 °F - 21.0 °F 24% 29.92 in 10.0 mi SSW 12.7 mph - N/A   Clear
10:53 PM 52.0 °F - 21.9 °F 31% 29.94 in 10.0 mi SW 11.5 mph - N/A   Clear
11:53 PM 53.1 °F - 15.1 °F 22% 29.92 in 10.0 mi SW 12.7 mph - N/A   Clear